Find Starlink 32338

NORAD ID: 61519 Int'l Des: 2024-183 Owner: SPXS Country: US Constellation: starlink operational
LEOCIRCULAR

現在のビュー

3D地球を読み込み中...

About Starlink 32338

Starlink 32338 (NORAD 61519) is a starlink constellation satellite (v2 mini) launched Oct 15, 2024 by SPXS of US. It operates in LEO, CIRCULAR orbit with a mass of 730.00 kg.

次回通過

Passes for default location (London). Set your location on the main map for personalized predictions.

高度履歴

Loading altitude history...

軌道要素

1 61519U 24183L 26255.06329468 .00005263 00000-0 16684-3 0 9992
2 61519 53.1629 347.0422 0001142 73.1019 287.0109 15.34389610108322
Epoch: Sep 12, 2026 • Age: 20 hours

現在のステータス

高度 463.7 km
遠地点 / 近地点 N/A
速度 7.64 km/s
衛星直下点 0.59°N, 144.92°W
打ち上げ日 Oct 15, 2024
運用期間 1.9 years
タイプ internet

技術仕様

分類 Payload
質量 730.00 kg
乾燥質量 700.00 kg
総質量 730.00 kg
長さ 0.30 m
直径 4.10 m
スパン 29.00 m
形状 Box + pan
製造者 SPXS
バスタイプ Starlink V2M
フェーズステータス In Orbit
所有者/国 SPXS/US

Most Searched